Location: Chiroubles
(46.1812°N, 4.6660°E)
Time: 03:37:52
(UTC+00:00)

NOSS 3-2 (C) - Pass Details

Date: 15 August 2020
Orbit: 793 x 1419 km, 63.4° (Epoch: 21 September)

Event Time Altitude Azimuth Distance (km) Brightness Sun altitude
Rises 19:58:27 0° 204° (SSW) 3,328 6.2 -11.4°
Reaches altitude 10° 20:00:47 10° 201° (SSW) 2,440 5.5 -11.7°
Maximum altitude 20:06:18 61° 122° (ESE) 1,016 3.3 -12.5°
Drops below altitude 10° 20:12:36 10° 44° (NE) 2,786 5.8 -13.4°
Sets 20:15:26 0° 41° (NE) 3,839 6.6 -13.8°
